{"data":{"norad_id":56209,"epoch":"2026-05-25T04:59:59.457984Z","epoch_age_seconds":50342,"freshness":"FRESH","line1":"1 56209U 23054AH  26145.20832706  .00010389  00000+0  19118-3 0  9995","line2":"2 56209  97.3022  53.2947 0009820 112.1075 248.1219 15.49325522174831","mean_motion":15.49325522,"eccentricity":0.000982,"inclination_deg":97.3022,"raan_deg":53.2947,"arg_perigee_deg":112.1075,"mean_anomaly_deg":248.1219,"bstar":0.00019118,"rev_number":17483,"period_min":92.943669974605,"perigee_km":412.02346898014,"apogee_km":425.37245284337,"semimajor_km":6796.8349609118,"source":"CELESTRAK","updated_at":"2026-05-25T13:37:59.400421Z"}}